Regional Weather Roundup
Issued by NWS Wakefield, VA

Home | Current Version | Previous Version | Graphics & Text | Print | Product List | Glossary On
Versions: 1 2 3 4 5 6 7 8 9 10 11 12 13 14 15 16 17 18 19 20 21 22 23 24 25 26 27 28 29 30 31 32 33 34 35 36 37 38 39 40 41 42 43 44 45 46 47 48 49 50
000
ASUS41 KAKQ 061115
RWRAKQ

REGIONAL WEATHER ROUNDUP
NATIONAL WEATHER SERVICE WAKEFIELD VA
700 AM EDT WED MAY 06 2015

Note: "fair" indicates few or no clouds below 12,000 feet with no
significant weather and/or obstructions to visibility. * = Denotes
station may not report precipitation (e.g., rain,snow,etc.),
thunder or fog.

VAZ042-051-052>054-056-061200-
NORTHERN VIRGINIA

CITY           SKY/WX    TMP DP  RH WIND       PRES   REMARKS
WASH NATIONAL  PTCLDY    65  62  90 CALM      30.21R
DULLES         PTCLDY    58  58 100 CALM      30.20R FOG
FORT BELVOIR   CLEAR     57  57 100 CALM      30.21R FOG
QUANTICO       MOCLDY    64  62  93 S6        30.22R
FREDERICKSBRG* PTCLDY    63  63 100 CALM      30.20S FOG
STAFFORD*      FOG       57  32  38 CALM      30.25R VSB 1/2
WARRENTON      FOG       58  58 100 CALM      30.21R VSB 1/4
CULPEPER*      FOG       56  56 100 CALM      30.22R VSB<1/4
MANASSAS*      CLEAR     57  57 100 CALM      30.21R
LEESBURG*      CLEAR     59  59 100 CALM      30.23R FOG
WINCHESTER     FOG       55  52  88 CALM      30.22R VSB 1
FRONT ROYAL*   FAIR      59  55  88 CALM      30.21R
LURAY*           N/A     55  55 100 CALM      30.24R FOG
$$

VAZ048-049-060>072-079>083-061200-
CENTRAL AND SOUTH CENTRAL VIRGINIA

CITY           SKY/WX    TMP DP  RH WIND       PRES   REMARKS
RICHMOND       MOCLDY    61  54  77 S3        30.22R
CHESTERFIELD*  FAIR      63  45  51 S3        30.24R
PETERSBURG*    CLOUDY    58  53  83 CALM      30.24R
HANOVER        PTCLDY    62  57  83 CALM      30.23R
TAPPAHANNOCK*  PTCLDY    62  53  72 S3        30.23R
QUINTON*       FAIR      60  54  82 E6        30.22S
CHARLOTTSVILLE PTCLDY    61  60  97 CALM      30.21R
GORDONSVILLE*  FAIR      57  56  99 CALM      30.20S FOG
ORANGE*        PTCLDY    57  55  94 CALM      30.22S FOG
LOUISA*        PTCLDY    63  59  88 CALM      30.20S
BUMPASS*       FAIR      59  58  97 S5        30.21R
FARMVILLE*     PTCLDY    60  60 100 SW3       30.21S
CREWE*         FAIR      60  53  76 CALM      30.22R
FORT PICKETT*  FAIR      58  53  85 S12       30.23S
CHASE CITY*    FAIR      59  57  92 CALM      30.23S
CLARKSVILLE*   FAIR      52  52 100 CALM      30.23S
SOUTH HILL*    CLEAR     55  51  87 CALM      30.29S
LAWRENCEVILLE* FAIR      53  51  94 CALM      30.24S
EMPORIA*       PTCLDY    52  52 100 CALM      30.26S
$$

VAZ088>098-061200-
SOUTHEAST VIRGINIA

CITY           SKY/WX    TMP DP  RH WIND       PRES   REMARKS
NORFOLK        CLEAR     60  53  77 S7        30.25R
VIRGINIA BEACH MOCLDY    61  55  81 CALM      30.25R
NORFOLK NAVAL  PTCLDY    67  54  63 S6        30.26R
WEST POINT*    MOCLDY    65  52  61 S3        30.25R
SALUDA*        FAIR      62  53  74 SW7       30.23R
NEWPORT NEWS   CLEAR     64  54  69 SW6       30.25R
LANGLEY AFB    CLEAR     62  53  72 S6        30.24R
FORT EUSTIS    CLEAR     62  55  77 S3        30.23R
WILLIAMSBURG*  PTCLDY    64  55  72 SW3       30.25S
HR EXEC AP*    FAIR      54  50  87 CALM      30.27S
FRANKLIN*      CLEAR     55  52  92 CALM      30.26R
WAKEFIELD      CLEAR     56  53  90 CALM      30.25R
$$

VAZ020-022-025-037-045-061200-
WEST CENTRAL AND SOUTHWEST VIRGINIA

CITY           SKY/WX    TMP DP  RH WIND       PRES   REMARKS
STAUNTON*      PTCLDY    55  53  94 CALM      30.26R FOG
WAYNESBORO*    FAIR      58  57  95 CALM      30.24S
HOT SPRINGS VA CLOUDY    60  51  71 NW3       30.32R
LYNCHBURG      CLOUDY    58  55  90 SW3       30.24R
DANVILLE       CLEAR     56  53  90 SW3       30.24R
SOUTH BOSTON*  FAIR      54  53  95 CALM      30.24R
MARTINSVILLE   CLEAR     52  52 100 CALM      30.26S FOG
ROANOKE        CLOUDY    60  55  83 CALM      30.26R
BLACKSBURG     CLOUDY    56  53  88 NW3       30.30R
DUBLIN*        CLOUDY    57  56  96 CALM      30.29R
MARION*        PTCLDY    53  51  93 CALM      30.32R
HILLSVILLE*    MOCLDY    56  53  89 SW3       30.30R
RICHLANDS*     FAIR      60  52  74 CALM      30.29R
WISE*          MOCLDY    61  48  63 CALM      30.30R
ABINGDON*      PTCLDY    57  54  89 CALM      30.28R
$$

MDZ021>025-VAZ099-100-061200-
SOUTHERN MARYLAND AND THE DELMARVA PENINSULA

CITY           SKY/WX    TMP DP  RH WIND       PRES   REMARKS
PATUXENT RIVER MOCLDY    61  56  83 SW5       30.21R
BAY BRIDGE APT   N/A    N/A N/A N/A SE5       30.21S
LEONARDTOWN    CLEAR     59  55  88 CALM      30.23R
DOVER          SUNNY     62  62 100 S5        30.19R
GEORGETOWN     MOSUNNY   60  58  92 SE8       30.23R
EASTON         MOSUNNY   63  63 100 CALM      30.25R
CAMBRIDGE      MOSUNNY   61  59  94 CALM      30.22S
SALISBURY      PTSUNNY   61  57  87 CALM      30.22S
OCEAN CITY     MOSUNNY   61  56  83 CALM      30.23S
WALLOPS ISLAND PTSUNNY   61  56  83 S3        30.24R
ACCOMACK*      MOSUNNY   61  54  77 S5        30.24R
$$

NCZ012>017-030>032-061200-
NORTH CENTRAL AND EASTERN NORTH CAROLINA

CITY           SKY/WX    TMP DP  RH WIND       PRES   REMARKS
ROANOKE RAPIDS FAIR      50  50 100 CALM      30.25R
RALEIGH        PTCLDY    54  52  93 CALM      30.26R
ELIZABETH CITY CLEAR     58  58 100 CALM      30.26S
AHOSKIE*       CLEAR     51  50  97 CALM      30.26S
EDENTON*       CLEAR     55  53  94 CALM      30.26R
CURRITUCK*     CLEAR     58  56  92 CALM      30.27R
KILL DEVIL HLS CLEAR     61  60  97 CALM      30.26R
MANTEO         CLEAR     56  56  99 CALM      30.27R
CAPE HATTERAS  MOCLDY    55  53  93 E3        30.25S
TARBORO*       FAIR      52  51  97 CALM      30.27R
GOLDSBORO      PTCLDY    53  51  94 CALM      30.23R
WASHINGTON       N/A     53  52  95 CALM      30.26R
GREENVILLE     PTCLDY    54  54 100 CALM      30.26S
NEW BERN       MOCLDY    53  49  86 CALM      30.25S
WILMINGTON     CLOUDY    57  55  93 NE5       30.22R
$$

VAZ048-061200-
ELSEWHERE

CITY           SKY/WX    TMP DP  RH WIND       PRES   REMARKS
HARRISBURG PA  LGT RAIN  63  60  90 W5        30.23R FOG
BALTIMORE      PTCLDY    61  59  93 CALM      30.20S
ANNAPOLIS      CLEAR     63  60  90 SE5       30.20R
ANDREWS AFB    CLEAR     60  60 100 SE3       30.20R
PHILADELPHIA   MOSUNNY   68  56  65 NE7       30.22R
HENDERSON NC   PTCLDY    54  51  90 S5        30.25R
GREENSBORO     PTCLDY    56  54  93 S6        30.24R
ROCKY MOUNT    CLEAR     53  51  93 CALM      30.25R
$$

VAZ100-061200-
MARINE

STATION/POSITION TIME  TEMP    WIND        PRES    WAVE   SWELL
                       AIR SEA DIR/SP/G            HT/PER HT/PER
                 (UTC) (F)     (DEG/KT/KT) (MB)    (FT/S) (FT/S)
BRANDYWINE LGT   1000   67 56  240/ 10/ 10 1023.2R
CAPE MAY NJ      1000   62 61  230/  7/  8 1022.9R
LEWES DE         1000          200/  4/  5   N/A
15NM E FENWICK I 1050   56 53              1023.4R   3/ 5
OCEAN-CITY-INLET 1000          230/  2/  2   N/A
WACHAPREAGUE VA  1000   61 68  240/  3/  4 1023.8R
THOMAS POINT MD  1100   63 60  160/ 11/ 11 1023.5R
GOOSES REEF MD   1100   63 62                N/A     1/ 2
COVE POINT MD    1000   63     180/  3/  4 1023.6R
SOLOMONS ISLAND  1000      62                N/A
BISHOPS HEAD MD  1000   66 66  240/  7/  8 1022.7S
PINEY POINT MD   1000          270/  4/  5   N/A
CAMBRIDGE MD     1000   63 65  170/  1/  3 1022.9R
LEWISETTA VA     1000   66 65              1022.6F
RAPPAHANNOCK LGT 1000          190/  9/  9 1024.0F
YORK RVR RNG VA  1000   63     220/  7/  8 1023.2R
YORKTOWN VA      1000   62 62  220/  4/  5 1023.5S
JAMESTOWN VA     1100   62 66  200/  4/  6 1023.3R
DOMINION TERM VA 1000   63     240/  5/  6 1024.0S
KIPTOPEKE VA     1000      66  240/  2/  4   N/A
CHES BAY BRIDGE  1000          210/  8/  8   N/A
CAPE HENRY VA    1000   62     240/  5/  8 1022.8R
CHESAPEAKE LGHT  1000   63     220/  9/  9 1024.9R
WILLOUBY STN VA  1000   62     230/  8/  8 1024.6R
S CRANEY ISL VA  1000          210/  3/  4 1024.0R
CAPE HENRY BUOY  1028      60                N/A     1/12
1ST LANDING BUOY 1100      61                N/A     1/ 5
CAPE CHARLES BUO 1026      56                N/A     1/11   2/11
OFFSHORE WE BUOY 1011      59                N/A     2/11   2/11
64NM E OF VA BCH 1050   57 56  240/  2/  2 1024.5R   2/11   2/11
DUCK PIER NC     1000   64 51  190/  5/  5 1023.3R
44056 DUCK FRF   1011      53                N/A     2/11
OREGON INLET NC  1000   63 70  140/  5/  8 1024.0F
HATTERAS NC      1000           80/  2/  2   N/A
DIAMOND SHLS NC  1050   70 75  110/  6/  8 1024.3S   3/ 8   3/ 8
CAPE LOOKOUT NC  1100   67      40/  7/  7 1023.4R
$$



USA.gov is the U.S. government's official web portal to all federal, state and local government web resources and services.